World > North America > United States > Illinois

Bonfield, Illinois Regional Weather

Lat: 41.15N, Lon: 88.06W
Wx Zone: ILZ023Web Search
Bonfield Weather Warning NWS WEATHER ALERT FOR THE BONFIELD, IL AREA - Issued: 319 AM CDT Mon May 17 2021 Bonfield Weather Warning  

Helpful Tip: You can add this page to Bookmarks by pressing the Ctrl key & d key at the same time. Mac users press command & d.

Feedback


°F Click to change Bonfield hourly weather to Imperial units.Click to change Bonfield hourly weather to Metric units. °C
Bonfield Weather Map
UTC Time: 5/17/2021, 17:11
Your Time:

Bonfield, IL Regional Weather

Expires:202105171800;;264876
ASUS43 KLOT 171709
RWRIL 

ILLINOIS REGIONAL WEATHER ROUNDUP
NATIONAL WEATHER SERVICE CHICAGO/ROMEOVILLE IL
1200 PM CDT MON MAY 17 2021

NOTE: "FAIR" INDICATES FEW OR NO CLOUDS BELOW 12,000 FEET WITH NO
SIGNIFICANT WEATHER AND/OR OBSTRUCTIONS TO VISIBILITY.

* THESE STATIONS ARE NOT UNDER NWS QUALITY CONTROL. THEY ALSO MAY NOT
  REPORT WEATHER SUCH AS PRECIPITATION OR FOG.


ILZ005-006-012>014-019>023-171800-
NORTHEAST ILLINOIS
  
CITY           SKY/WX    TMP DP  RH WIND       PRES   REMARKS
CHICAGO-OHARE  CLOUDY    68  52  56 E8        30.19S                  
CHICAGO-MIDWAY CLOUDY    67  51  56 S9        30.19S                  
AURORA         CLOUDY    65  55  70 SE10      30.19S                  
JOLIET*        CLOUDY    66  58  76 SE8       30.19S                  
WAUKEGAN       CLOUDY    67  52  58 E7        30.20S                  
DUPAGE AIRPORT CLOUDY    66  54  65 S6        30.19S                  
KANKAKEE*      CLOUDY    63  59  88 SE9       30.19S                  
WHEELING       CLOUDY    70  51  51 VRB7      30.21S                  
MORRIS*        LGT RAIN  63  60  91 E7        30.18S                  
ROMEOVILLE*    CLOUDY    65  56  75 SE9       30.19S                  
LANSING*       CLOUDY    66  54  66 SE8       30.21R                  
NORTHERLY ISL*   N/A     61  53  75 NE3         N/A                   
$$


SKY/WX - Weather  TMP - Temperature  DP - Dew Point  RH - Relative Humidity
WIND - Wind Direction/Speed PRES - Barometric Pressure VSB - Visibility
WCI - Wind Chill Index E13G22 Wind - East Wind 13 mph/Gusts of 22 mph